Weather History for Pampa / Mesa Vista, TX

Change the Weather History Date:

Wednesday, January 9, 2013

  Actual Average (KBGD) Record (KBGD)
Temperature  
Mean Temperature 38 °F 38 °F  
Max Temperature 51 °F 50 °F 72 °F (1963)
Min Temperature 26 °F 26 °F -1 °F (1977)
Degree Days  
Heating Degree Days 26 27  
Month to date heating degree days 247  
Since 1 July heating degree days 1784  
Cooling Degree Days 0 0  
Month to date cooling degree days 0  
Year to date cooling degree days 0  
Moisture  
Dew Point 29 °F    
Average Humidity 72    
Maximum Humidity 100    
Minimum Humidity 38    
Precipitation  
Precipitation 0.14 in 0.02 in 0.55 in (2013)
Month to date precipitation 0.15  
Year to date precipitation 0.15  
Snow  
Snow 0.00 in - 4.70 in (1965)
Month to date snowfall  
Since 1 July snowfall  
Snow Depth -    
Sea Level Pressure  
Sea Level Pressure 30.26 in    
Wind  
Wind Speed 7 mph (NNE)    
Max Wind Speed 17 mph    
Max Gust Speed 22 mph    
Visibility 10 miles    
Events Rain    
T = Trace of Precipitation, MM = Missing Value Source: NWS Daily Summary

Daily Weather History Graph

Daily Weather History Graph

Search for Another Location

Airport:

Trip Planner

Search our weather history database for the weather conditions in past years. The results will help you decide how hot, cold, wet, or windy it might be!

Date:

Astronomy

Jan. 09, 2013 Rise Set
Actual Time 7:54 AM CST 5:48 PM CST
Civil Twilight 7:26 AM CST 6:16 PM CST
Nautical Twilight 6:54 AM CST 6:48 PM CST
Astronomical Twilight 6:24 AM CST 7:19 PM CST
Moon 5:35 AM CST (1/9) 3:52 PM CST (1/9)
Length of Visible Light 10h 49m
Length of Day
9h 53m
Waning Crescent, 6% of the Moon is Illuminated
Jan 9
Waning Crescent
Jan 11
New
Jan 18
First Quarter
Jan 26
Full
Feb 3
Last Quarter

Hourly Weather History & Observations

Time (CST) Temp. Windchill Dew Point Humidity Pressure Visibility Wind Dir Wind Speed Gust Speed Precip Events Conditions
12:35 AM 28.4 °F - 24.8 °F 86% 30.21 in 10.0 mi Calm Calm - N/A   Clear
12:55 AM 28.4 °F 23.3 °F 24.8 °F 86% 30.22 in 10.0 mi NNW 4.6 mph - N/A   Clear
1:15 AM 26.6 °F 22.6 °F 23.0 °F 86% 30.23 in 10.0 mi West 3.5 mph - N/A   Clear
1:35 AM 26.6 °F 20.0 °F 24.8 °F 93% 30.23 in 10.0 mi NW 5.8 mph - N/A   Clear
1:55 AM 28.4 °F 21.2 °F 26.6 °F 93% 30.23 in 10.0 mi NW 6.9 mph - N/A   Clear
2:15 AM 30.2 °F 22.6 °F 26.6 °F 86% 30.25 in 10.0 mi NW 8.1 mph - N/A   Clear
2:35 AM 30.2 °F 22.6 °F 26.6 °F 86% 30.24 in 10.0 mi NNW 8.1 mph - N/A   Clear
2:55 AM 30.2 °F 23.4 °F 26.6 °F 86% 30.26 in 10.0 mi NNW 6.9 mph - N/A   Clear
3:15 AM 30.2 °F - 28.4 °F 93% 30.26 in 10.0 mi Calm Calm - N/A   Clear
3:35 AM 30.2 °F 25.4 °F 26.6 °F 86% 30.25 in 10.0 mi North 4.6 mph - N/A   Clear
3:55 AM 30.2 °F - 26.6 °F 86% 30.25 in 10.0 mi Calm Calm - N/A   Clear
4:15 AM 30.2 °F - 26.6 °F 86% 30.25 in 10.0 mi Calm Calm - N/A   Clear
4:35 AM 28.4 °F - 24.8 °F 86% 30.25 in 10.0 mi Calm Calm - N/A   Clear
4:55 AM 28.4 °F 24.6 °F 26.6 °F 93% 30.25 in 10.0 mi North 3.5 mph - N/A   Clear
5:15 AM 32.0 °F 28.7 °F 26.6 °F 80% 30.26 in 10.0 mi NNW 3.5 mph - N/A   Clear
5:35 AM 32.0 °F - 26.6 °F 80% 30.27 in 10.0 mi Calm Calm - N/A   Clear
5:55 AM 32.0 °F - 28.4 °F 87% 30.27 in 10.0 mi Calm Calm - N/A   Clear
6:15 AM 32.0 °F - 28.4 °F 87% 30.29 in 10.0 mi Calm Calm - N/A   Clear
6:35 AM 32.0 °F 26.4 °F 26.6 °F 80% 30.29 in 10.0 mi NNW 5.8 mph - N/A   Clear
6:55 AM 32.0 °F 24.2 °F 28.4 °F 87% 30.30 in 10.0 mi North 9.2 mph - N/A   Clear
7:15 AM 32.0 °F 23.0 °F 28.4 °F 87% 30.30 in 10.0 mi North 11.5 mph - N/A   Clear
7:35 AM 32.0 °F 24.8 °F 28.4 °F 87% 30.30 in 10.0 mi North 8.1 mph - N/A   Clear
7:55 AM 32.0 °F 28.7 °F 28.4 °F 87% 30.32 in 10.0 mi North 3.5 mph - N/A   Clear
8:35 AM 32.0 °F 25.6 °F 26.6 °F 80% 30.35 in 10.0 mi NNW 6.9 mph - N/A   Clear
8:55 AM 32.0 °F 27.5 °F 28.4 °F 87% 30.36 in 10.0 mi North 4.6 mph - N/A   Clear
9:15 AM 33.8 °F 28.6 °F 30.2 °F 87% 30.36 in 10.0 mi North 5.8 mph - N/A   Clear
9:35 AM 33.8 °F - 28.4 °F 81% 30.38 in 10.0 mi Calm Calm - N/A   Clear
9:55 AM 35.6 °F - 30.2 °F 81% 30.38 in 10.0 mi Calm Calm - N/A   Clear
10:15 AM 37.4 °F - 30.2 °F 75% 30.38 in 10.0 mi Calm Calm - N/A   Clear
10:35 AM 41.0 °F 37.1 °F 30.2 °F 65% 30.38 in 10.0 mi NNE 5.8 mph - N/A   Clear
11:15 AM 46.4 °F 40.7 °F 30.2 °F 53% 30.36 in 10.0 mi NNE 12.7 mph - N/A   Clear
11:35 AM 50.0 °F - 28.4 °F 43% 30.35 in 10.0 mi NE 10.4 mph - N/A   Clear
12:15 PM 50.0 °F - 26.6 °F 40% 30.33 in 10.0 mi ENE 12.7 mph 20.7 mph N/A   Clear
12:35 PM 50.0 °F - 26.6 °F 40% 30.32 in 10.0 mi NE 13.8 mph 20.7 mph N/A   Clear
12:55 PM 51.8 °F - 26.6 °F 38% 30.31 in 10.0 mi NE 17.3 mph 20.7 mph N/A   Clear
1:15 PM 50.0 °F - 26.6 °F 40% 30.31 in 10.0 mi NE 13.8 mph - N/A   Scattered Clouds
1:35 PM 50.0 °F - 26.6 °F 40% 30.28 in 10.0 mi NE 17.3 mph - N/A   Mostly Cloudy
2:15 PM 50.0 °F - 26.6 °F 40% 30.26 in 10.0 mi NE 17.3 mph - N/A   Overcast
2:35 PM 50.0 °F - 26.6 °F 40% 30.25 in 10.0 mi NE 17.3 mph 21.9 mph N/A   Mostly Cloudy
2:55 PM 50.0 °F - 26.6 °F 40% 30.26 in 10.0 mi NE 16.1 mph - N/A   Scattered Clouds
3:15 PM 50.0 °F - 26.6 °F 40% 30.26 in 10.0 mi NE 13.8 mph - N/A   Mostly Cloudy
3:35 PM 51.8 °F - 26.6 °F 38% 30.26 in 10.0 mi NE 15.0 mph 20.7 mph N/A   Overcast
3:55 PM 50.0 °F - 26.6 °F 40% 30.25 in 10.0 mi NE 13.8 mph - N/A   Mostly Cloudy
4:15 PM 50.0 °F - 26.6 °F 40% 30.26 in 10.0 mi NE 15.0 mph 20.7 mph N/A   Mostly Cloudy
4:35 PM 50.0 °F - 26.6 °F 40% 30.24 in 10.0 mi NE 12.7 mph 19.6 mph N/A   Overcast
4:55 PM 50.0 °F - 26.6 °F 40% 30.24 in 10.0 mi NE 15.0 mph - N/A   Mostly Cloudy
5:15 PM 48.2 °F - 28.4 °F 46% 30.24 in 10.0 mi ENE 12.7 mph 16.1 mph N/A   Overcast
5:35 PM 46.4 °F 40.1 °F 28.4 °F 50% 30.25 in 10.0 mi ENE 15.0 mph 20.7 mph N/A   Overcast
5:55 PM 46.4 °F 40.4 °F 30.2 °F 53% 30.25 in 10.0 mi ENE 13.8 mph 20.7 mph N/A Rain Light Rain
6:15 PM 44.6 °F 39.2 °F 32.0 °F 61% 30.24 in 10.0 mi NE 10.4 mph - N/A Rain Light Rain
6:35 PM 42.8 °F 35.1 °F 33.8 °F 70% 30.24 in 10.0 mi ENE 16.1 mph 20.7 mph N/A   Light Drizzle
6:55 PM 42.8 °F 38.0 °F 33.8 °F 70% 30.23 in 10.0 mi NE 8.1 mph - N/A   Overcast
7:15 PM 41.0 °F 36.4 °F 33.8 °F 76% 30.22 in 10.0 mi NE 6.9 mph - N/A   Light Drizzle
7:35 PM 41.0 °F 35.8 °F 33.8 °F 76% 30.22 in 10.0 mi NE 8.1 mph - N/A   Drizzle
7:55 PM 41.0 °F 34.3 °F 33.8 °F 76% 30.22 in 10.0 mi NE 11.5 mph - N/A   Drizzle
8:35 PM 39.2 °F 33.0 °F 35.6 °F 87% 30.20 in 10.0 mi NE 9.2 mph - N/A Rain Light Rain
8:55 PM 39.2 °F 33.0 °F 35.6 °F 87% 30.19 in 10.0 mi NNE 9.2 mph - 0.01 in Rain Rain
9:15 PM 39.2 °F 32.0 °F 35.6 °F 87% 30.18 in 10.0 mi NNE 11.5 mph - N/A   Drizzle
9:55 PM 37.4 °F 30.3 °F 37.4 °F 100% 30.17 in 7.0 mi NE 10.4 mph - 0.01 in Rain Rain
10:15 PM 37.4 °F 29.8 °F 37.4 °F 100% 30.16 in 7.0 mi NNE 11.5 mph - N/A   Drizzle
10:35 PM 37.4 °F 29.3 °F 37.4 °F 100% 30.15 in 7.0 mi NE 12.7 mph 16.1 mph 0.01 in Rain Rain
11:15 PM 37.4 °F 29.3 °F 35.6 °F 93% 30.14 in 7.0 mi NE 12.7 mph 17.3 mph 0.01 in Rain Rain
11:35 PM 37.4 °F 29.3 °F 35.6 °F 93% 30.13 in 3.0 mi NNE 12.7 mph - 0.07 in Rain Rain
11:55 PM 37.4 °F 29.8 °F 35.6 °F 93% 30.12 in 4.0 mi NE 11.5 mph - 0.11 in Rain Rain